Torna al catalogo

ARIANE 1 DEB

LostHEO
NORAD 25824·DEBRIS·🇫🇷 France

Lanciato Mar 5, 1984 da Guiana Space Centre

Loading…

Prossimi Passaggi (prossime 24 ore)

TLE

ObsoletoSource: Space-Track

Epoca: Feb 25, 2026, 07:58 UTC

1 25824U 84023F   26056.33238400 -.00000153  00000-0 -24054-2 0  9998
2 25824   8.2971  42.5449 6792781 156.3785 193.5279  2.56688552251868

Traccia ARIANE 1 DEB in tempo reale con AllMySat

Download on the App Store